Regional Weather Roundup
Issued by NWS

Home | Current Version | Previous Version | Text Only | Print | Product List | Glossary Off
Versions: 1 2 3 4 5 6 7 8 9 10 11 12 13 14 15 16 17 18 19 20 21 22 23 24 25 26 27 28 29 30 31 32 33 34 35 36 37 38 39 40 41 42 43 44 45 46 47 48 49

000
ASUS45 KBOU 280807
RWRCO

WEATHER ROUNDUP FOR COLORADO
NATIONAL WEATHER SERVICE DENVER/BOULDER CO
100 AM MST WED JAN 28 2015

NOTE: "FAIR" INDICATES FEW OR NO CLOUDS BELOW 12000 FEET WITH NO
SIGNIFICANT WEATHER AND/OR OBSTRUCTIONS TO VISIBILITY.

COZ001>005-013-030-031-280900-
...NORTHWEST COLORADO...

CITY           SKY/WX    TMP DP  RH WIND       PRES   REMARKS
CRAIG          LGT RAIN  34  31  88 CALM      30.21F
HAYDEN         CLOUDY    36  28  75 CALM      30.21F
MEEKER         CLOUDY    40  31  70 W9        30.22S
MOUNT WERNER   NOT AVBL
STEAMBOAT SPGS CLOUDY    32  26  77 E5        30.21F WCI  28
WALDEN         CLOUDY    34  27  75 S12G17    30.18F WCI  25
$$

COZ006>008-011-280900-
...WEST CENTRAL VALLEYS...

CITY           SKY/WX    TMP DP  RH WIND       PRES   REMARKS
GRAND JUNCTION CLEAR     30  25  81 CALM      30.24S
MONTROSE       CLEAR     31  25  78 S6        30.27F WCI  25
EAGLE          CLOUDY    32  27  80 CALM      30.25F
RIFLE          PTCLDY    32  26  78 SW5       30.24F WCI  27
DELTA          CLEAR     32  27  80 CALM      30.26F
NUCLA          PTCLDY    34  30  86 E10       30.29F WCI  26
$$

COZ017>023-064>068-280900-
...SOUTHWEST COLORADO...

CITY           SKY/WX    TMP DP  RH WIND       PRES   REMARKS
DURANGO        MOCLDY    34  28  79 CALM      30.28S
CORTEZ         MOCLDY    33  29  85 CALM      30.28S
PAGOSA SPRINGS CLOUDY    31  29  94 CALM      30.29S
TELLURIDE      CLOUDY    33  25  71 E8        30.33F WCI  26
WOLF CREEK PAS NOT AVBL
$$

COZ009-010-012-014-032>034-037-058>063-280900-
...CENTRAL COLORADO...

CITY           SKY/WX    TMP DP  RH WIND       PRES   REMARKS
ASPEN          CLOUDY    32  22  66 S6        30.25F WCI  26
BUENA VISTA    MOCLDY    41  21  44 SW6       30.21F
COPPER MTN     MOCLDY    28  18  64 SW12      30.30F WCI  18
BERTHOUD PASS  MOCLDY    19  12  73 NW25G32   30.25F WCI   2
COTTONWOOD PAS PTCLDY    37  19  48 W20G37    30.23F
GUNNISON       PTCLDY     9  -2  61 E3        30.34F
KREMMLING      CLOUDY    18  14  86 CALM      30.25F
LEADVILLE      CLEAR     28  17  63 N10       30.25F WCI  19
MONARCH PASS   PTCLDY    23  19  86 W41G52    30.39F WCI   3
SALIDA         PTCLDY    44  24  45 SW13G18   30.27F
SUNLIGHT       PTCLDY    30  27  86 CALM        N/A
WILKERSON PASS PTCLDY    27  14  59 W9G21     30.24S WCI  17
$$

COZ069>075-280900-
...SAN LUIS VALLEY/SANGRE DE CRISTO MOUNTAINS...

CITY           SKY/WX    TMP DP  RH WIND       PRES   REMARKS
ALAMOSA        PTCLDY    19  15  84 N5        30.25F WCI  12
LA VETA PASS   NOT AVBL
SAGUACHE       PTCLDY    32  23  69 NW6       30.27F WCI  26
$$

COZ035-036-038>040-280900-
...NORTHERN COLORADO FRONT RANGE...

CITY           SKY/WX    TMP DP  RH WIND       PRES   REMARKS
DENVER INTL AP MOCLDY    47  24  40 W7        30.00F
DMNS CITY PARK   N/A     40  24  54 CALM      30.00S
AURORA         PTCLDY    41  22  47 S6        30.02F
FRONT RANGE AP NOT AVBL
ERIE MUNI ARPT PTCLDY    50  23  34 SW5       30.00S
BOULDER MUN AP PTCLDY    54  25  32 SW5       30.00R
CENTENNIAL     PTCLDY    38  24  57 CALM      30.02S
BROOMFIELD     PTCLDY    54  23  30 W25G36    30.00F
FORT COLLINS   MOCLDY    45  23  42 CALM      29.99F
LONGMONT       MOCLDY    48  25  39 CALM      30.00S
$$

COZ041-046-047-076>085-087-088-280900-
...PIKES PEAK/PALMER DIVIDE AND SOUTHERN FOOTHILLS...

CITY           SKY/WX    TMP DP  RH WIND       PRES   REMARKS
COLO. SPRINGS  CLEAR     50  18  28 N15       30.01F
A. F. ACADEMY  CLEAR     53  15  22 NW10      30.03F
ELLICOTT       CLEAR    N/A N/A N/A N7        30.00F
FALCON         CLEAR     49  15  26 NW13G20   30.04F
FORT CARSON    CLEAR     44  22  40 NE7       29.98F
LIMON          CLEAR     40  26  57 NW10      29.98S
MONUMENT HILL  CLEAR     37  19  48 W10       30.05S
TRINIDAD       PTCLDY    40  27  59 W13       30.04F
$$

COZ042>045-048>051-090-091-280900-
...NORTHEAST COLORADO...

CITY           SKY/WX    TMP DP  RH WIND       PRES   REMARKS
GREELEY ARPT   PTCLDY    32  23  69 W3        29.96F
AKRON          PTCLDY    39  28  64 NW17      29.94R
BURLINGTON     CLEAR     35  28  75 W12       29.90S WCI  27
WRAY           CLEAR     36  31  82 W8        29.89S
STERLING       PTCLDY    32  30  93 CALM      29.94S
HOLYOKE        CLEAR     41  30  65 NW12      29.90S
FORT MORGAN    PTCLDY    47  26  44 N14       29.96S
$$

COZ086-089-092>099-280900-
...SOUTHEAST COLORADO...

CITY           SKY/WX    TMP DP  RH WIND       PRES   REMARKS
PUEBLO         CLEAR     51  23  33 NW16      29.97F
LA JUNTA       PTCLDY    44  30  57 W15       29.95R
LAMAR          CLEAR     36  31  82 W9        29.90F
SPRINGFIELD      N/A     44  29  55 W8        29.95F
$$



USA.gov is the U.S. government's official web portal to all federal, state and local government web resources and services.